Home > Weather > Monza > Past weeks

Flag for Italy Weather for the Past 2 Weeks in Monza, Italy

Now
70 °F

Sunny.


Feels Like: 70 °F
Forecast: 51 / 70 °F
Wind: 3 mph from North

Location: Milan / Linate

Current Time: May 4, 2016 at 12:58:22 PM

Latest Report: May 4, 2016 at 12:20 PM


Visibility: 10 mi

Pressure: 30.07 "Hg

Humidity: 18%

Dew Point: 25 °F

Location of MonzaLocation

Historic Weather in Monza — Graph

°F

Monza Temperature Yesterday

Maximum temperature yesterday: 77 °F (at 4:50 PM)
Minimum temperature yesterday: 48 °F (at 5:20 AM)
Average temperature yesterday: 65 °F

High & Low Weather Summary for the Past Weeks

 TemperatureHumidityPressure
High77 °F (May 3, 4:50 PM)94% (Apr 24, 4:50 AM)30.30 "Hg (Apr 24, 4:50 AM)
Low41 °F (Apr 25, 4:20 AM)13% (Apr 27, 3:50 PM)29.50 "Hg (Apr 24, 2:20 PM)
Average59 °F55%29.91 "Hg
* Reported Apr 19 11:50 AM — May 4 11:20 AM, Monza, Weather by CustomWeather, © 2016

Note: Actual official high and low records may vary slightly from our data, if they occured in-between our weather recording intervals... More about our weather records

Advertising

Monza Weather History for the Previous 24 Hours

Scroll right to see more
 ConditionsComfort  
Time TempWeatherWind HumidityBarometerVisibility
11:20 AM
Wed, May 4
68 °FSunny.3 mph21%30.07 "Hg10 mi
10:50 AM68 °FSunny.3 mph20%30.07 "Hg10 mi
9:50 AM68 °FSunny.3 mph24%30.07 "Hg10 mi
9:20 AM64 °FPassing clouds.3 mph28%30.07 "HgN/A
8:50 AM64 °FPassing clouds.3 mph28%30.07 "HgN/A
8:20 AM63 °FSunny.2 mph32%30.07 "Hg10 mi
7:50 AM61 °FPassing clouds.3 mph31%30.07 "HgN/A
7:20 AM59 °FSunny.2 mph34%30.04 "Hg10 mi
6:50 AM57 °FPassing clouds.3 mph33%30.04 "HgN/A
6:20 AM55 °FPassing clouds.3 mph33%30.04 "HgN/A
5:50 AM57 °FClear.5 mph31%30.04 "Hg10 mi
5:20 AM57 °FPassing clouds.5 mph31%30.01 "HgN/A
4:50 AM55 °FPassing clouds.3 mph36%30.01 "HgN/A
4:20 AM54 °FClear.2 mph41%30.01 "Hg10 mi
3:50 AM54 °FClear.2 mph41%30.01 "Hg10 mi
3:20 AM57 °FPassing clouds.3 mph31%30.01 "HgN/A
2:50 AM57 °FPassing clouds.5 mph31%30.01 "HgN/A
2:20 AM55 °FPassing clouds.5 mph33%30.01 "HgN/A
1:50 AM57 °FPassing clouds.7 mph29%30.01 "HgN/A
12:50 AM63 °FPassing clouds.9 mph24%29.98 "HgN/A
11:50 PM
Tue, May 3
64 °FPassing clouds.10 mph24%29.98 "HgN/A
11:20 PM64 °FPassing clouds.12 mph24%29.95 "HgN/A
10:50 PM64 °FPassing clouds.9 mph28%29.95 "HgN/A
10:20 PM66 °FPassing clouds.8 mph28%29.95 "HgN/A
9:50 PM68 °FPassing clouds.12 mph24%29.92 "HgN/A
9:20 PM68 °FPassing clouds.10 mph26%29.89 "HgN/A
8:50 PM70 °FPassing clouds.13 mph23%29.89 "HgN/A
8:20 PM70 °FPassing clouds.13 mph25%29.89 "HgN/A
7:50 PM72 °FPassing clouds.13 mph22%29.86 "HgN/A
7:20 PM72 °FPassing clouds.14 mph22%29.86 "HgN/A
6:50 PM73 °FScattered clouds.16 mph22%29.86 "HgN/A
6:20 PM75 °FScattered clouds.7 mph27%29.86 "HgN/A
5:50 PM77 °FScattered clouds.12 mph26%29.86 "HgN/A
5:20 PM75 °FScattered clouds.8 mph27%29.86 "HgN/A
4:50 PM77 °FScattered clouds.8 mph26%29.86 "HgN/A
4:20 PM75 °FScattered clouds.6 mph27%29.86 "HgN/A
3:50 PM75 °FScattered clouds.7 mph29%29.86 "HgN/A
3:20 PM75 °FScattered clouds.7 mph29%29.89 "HgN/A
2:50 PM73 °FPassing clouds.5 mph29%29.89 "HgN/A
2:20 PM73 °FPassing clouds.6 mph27%29.92 "HgN/A
1:20 PM72 °FPassing clouds.7 mph31%29.92 "HgN/A
12:50 PM72 °FPassing clouds.7 mph36%29.95 "HgN/A
12:20 PM70 °FPassing clouds.7 mph38%29.95 "HgN/A
Weather by CustomWeather, © 2016

See weather overviewHow to use our weather pages